"Time","Temp","Dewpoint","Humidity","Pressure","Direction","Speed","Gust","Precip","PrecipRate"
"00:04:56","69.7","68.8","97","29.85","229","0","0","0.00","0.00"
"00:09:59","69.7","68.8","97","29.85","229","0","0","0.00","0.00"
"00:14:57","69.6","68.7","97","29.85","229","0","0","0.00","0.00"
"00:19:59","69.5","68.6","97","29.85","229","0","0","0.00","0.00"
"00:24:57","69.5","68.6","97","29.85","229","0","0","0.00","0.00"
"00:29:59","69.5","68.6","97","29.85","229","0","0","0.00","0.00"
"00:34:57","69.5","68.6","97","29.85","229","0","0","0.00","0.00"
"00:39:59","69.5","68.6","97","29.85","229","0","0","0.00","0.00"
"00:44:56","69.5","68.6","97","29.85","229","0","0","0.00","0.00"
"00:49:57","69.5","68.6","97","29.85","229","0","0","0.00","0.00"
"00:54:59","69.5","68.6","97","29.85","229","0","0","0.00","0.00"
"00:59:56","69.5","68.6","97","29.85","229","0","0","0.00","0.00"
"01:04:57","69.5","68.6","97","29.85","229","0","0","0.00","0.00"
"01:09:59","69.5","68.6","97","29.85","229","0","0","0.00","0.00"
"01:14:59","69.5","68.6","97","29.85","229","0","0","0.00","0.00"
"01:19:56","69.4","68.5","97","29.85","229","0","0","0.00","0.00"
"01:24:58","69.5","68.6","97","29.85","229","0","0","0.01","0.01"
"01:29:56","69.4","68.5","97","29.86","229","0","0","0.01","0.01"
"01:34:57","69.4","68.5","97","29.86","229","0","0","0.01","0.01"
"01:39:59","69.4","68.5","97","29.86","229","0","0","0.01","0.01"
"01:44:58","69.4","68.5","97","29.86","229","0","0","0.01","0.01"
"01:49:56","69.4","68.5","97","29.86","229","0","0","0.01","0.01"
"01:54:57","69.3","68.4","97","29.86","263","1","4","0.01","0.01"
"01:59:59","69.3","68.3","96.8","29.86","276","0.5","2.3","0.01","0.01"
"02:04:56","69.3","68.1","96","29.86","309","1","5","0.01","0.01"
"02:09:58","69.3","68.1","96","29.86","313","0.4","3","0.01","0.01"
"02:14:56","69.3","68.1","96","29.86","283","0.5","3.5","0.01","0.01"
"02:19:57","69.4","68.2","96","29.86","283","0.1","1.2","0.01","0.01"
"02:24:59","69.4","68.2","96","29.86","283","0.3","2.3","0.01","0.01"
"02:29:56","69.3","68.1","96","29.86","283","0.3","2.3","0.01","0.00"
"02:34:57","69.4","68.2","96","29.86","283","0.1","1.2","0.01","0.00"
"02:39:58","69.4","68.2","96","29.86","283","0","1","0.01","0.00"
"02:44:56","69.4","68.2","96","29.86","283","0","1.2","0.01","0.00"
"02:49:58","69.4","68.2","96","29.86","283","0","0","0.01","0.00"
"02:54:56","69.4","68","95.5","29.86","283","0","0","0.01","0.00"
"02:59:57","69.3","67.9","95.3","29.86","283","0","0","0.01","0.00"
"03:04:58","69.2","68","96","29.86","283","0","0","0.01","0.00"
"03:09:57","69.2","68","96","29.86","283","0","0","0.01","0.00"
"03:14:59","69.1","67.9","96","29.86","283","0","0","0.01","0.00"
"03:19:56","69.1","67.9","96","29.86","283","0","0","0.01","0.00"
"03:24:59","69","67.8","96","29.86","283","0","0","0.01","0.00"
"03:29:56","69","67.8","96","29.86","283","0","0","0.01","0.00"
"03:34:57","69","67.8","96","29.85","283","0","0","0.01","0.00"
"03:39:58","68.9","67.7","96","29.85","283","0","0","0.01","0.00"
"03:44:58","68.9","67.7","96","29.85","283","0","0","0.01","0.00"
"03:49:57","68.8","67.6","96","29.85","283","0.2","2.3","0.01","0.00"
"03:54:56","68.8","67.6","96","29.85","283","0.4","2.3","0.01","0.00"
"03:59:57","68.7","67.5","96","29.85","283","0","1","0.01","0.00"
"04:04:58","68.6","67.4","96","29.85","283","0.2","2.3","0.01","0.00"
"04:09:56","68.6","67.7","97","29.85","283","0.3","2.3","0.01","0.00"
"04:14:58","68.6","67.5","96.5","29.85","283","0.3","2.3","0.01","0.00"
"04:19:59","68.5","67.4","96.2","29.85","283","0","0","0.01","0.00"
"04:24:56","68.4","67.2","96","29.85","283","0","0","0.01","0.00"
"04:29:57","68.3","67.1","96","29.86","283","0","0","0.01","0.00"
"04:34:59","68.3","67.1","96.1","29.86","283","0","0","0.01","0.00"
"04:39:56","68.2","67.1","96.3","29.86","283","0","0","0.01","0.00"
"04:44:57","68.2","67.3","96.9","29.86","283","0","0","0.01","0.00"
"04:49:58","68.1","67","96.3","29.86","283","0","0","0.01","0.00"
"04:54:56","68","67.1","97","29.86","283","0","0","0.01","0.00"
"04:59:58","68","67.1","97","29.86","283","0","0","0.01","0.00"
"05:04:59","68","67.1","97","29.86","283","0","0","0.01","0.00"
"05:09:57","68","67.1","97","29.86","283","0","0","0.01","0.00"
"05:14:58","67.9","67","97","29.86","283","0","0","0.01","0.00"
"05:19:59","67.9","67","97","29.86","283","0","0","0.01","0.00"
"05:24:57","67.9","67","97","29.86","283","0","0","0.01","0.00"
"05:29:58","67.9","67","97","29.86","283","0","0","0.01","0.00"
"05:34:59","67.7","66.8","97","29.86","283","0","0","0.01","0.00"
"05:39:59","67.6","66.7","97","29.86","283","0","0","0.01","0.00"
"05:44:57","67.6","66.7","97","29.86","283","0","0","0.01","0.00"
"05:49:58","67.5","66.6","97","29.86","283","0","0","0.01","0.00"
"05:54:59","67.4","66.5","97","29.86","283","0","0","0.01","0.00"
"05:59:56","67.3","66.4","97","29.87","283","0","0","0.01","0.00"
"06:04:57","67.2","66.3","97","29.87","283","0","0","0.01","0.00"
"06:09:57","67.2","66.3","97","29.87","283","0","0","0.01","0.00"
"06:14:58","67.1","66.2","97","29.88","283","0","0","0.01","0.00"
"06:19:56","67","66","96.8","29.88","283","0","0","0.01","0.00"
"06:24:59","66.8","65.9","97","29.88","283","0","0","0.01","0.00"
"06:29:56","66.8","65.9","97","29.88","283","0","0","0.01","0.00"
"06:34:58","66.7","65.8","97","29.88","344","0.5","4","0.01","0.00"
"06:39:57","66.7","65.5","96.1","29.88","346","0.8","4","0.01","0.00"
"06:44:59","66.6","65.4","95.8","29.88","344","0.3","2.3","0.01","0.00"
"06:49:57","66.6","65.1","95","29.88","344","0","0","0.01","0.00"
"06:54:59","66.6","65","94.7","29.88","344","0","0","0.01","0.00"
"06:59:58","66.5","64.7","94","29.89","344","0","0","0.01","0.00"
"07:04:59","66.5","64.7","94","29.89","342","0","0","0.01","0.00"
"07:09:57","66.4","64.6","94","29.89","342","0","0","0.01","0.00"
"07:14:59","66.4","64.3","93.1","29.89","342","0","0","0.01","0.00"
"07:19:56","66.3","64.4","93.9","29.89","342","0","0","0.01","0.00"
"07:24:57","66.2","64.3","93.7","29.89","342","0","0","0.01","0.00"
"07:29:59","66.3","64.2","93.1","29.90","241","0","0","0.01","0.00"
"07:34:56","66.3","64.2","93","29.90","241","0","0","0.01","0.00"
"07:39:56","66.3","64.2","92.9","29.90","136","0","0","0.01","0.00"
"07:44:57","66.3","64.1","92.7","29.91","136","0","0","0.01","0.00"
"07:49:58","66.5","64.1","92.3","29.91","148","0","0","0.01","0.00"
"07:54:59","66.8","64.5","92.3","29.91","134","0","0","0.01","0.00"
"07:59:56","67.2","64.6","91.4","29.91","206","0","0","0.01","0.00"
"08:04:57","67.6","64.7","90.2","29.91","285","0.7","3.5","0.01","0.00"
"08:09:59","68.2","64.7","88.8","29.91","288","0.7","3.5","0.01","0.00"
"08:14:56","68.8","64.4","86.2","29.91","272","1.2","3.5","0.01","0.00"
"08:19:57","69.2","64.5","84.9","29.91","265","1.3","5","0.01","0.00"
"08:24:57","69.8","64.5","83.4","29.91","252","0.5","2.3","0.01","0.00"
"08:29:59","70.2","64.6","82.3","29.91","270","1.2","3.5","0.01","0.00"
"08:34:56","70.7","64.8","81.6","29.91","281","0.7","4","0.01","0.00"
"08:39:57","71","64.8","80.7","29.91","320","1.3","3.5","0.01","0.00"
"08:44:58","71.3","64.8","79.9","29.92","310","1.5","4","0.01","0.00"
"08:49:56","71.5","64.7","79.1","29.92","243","1","4","0.01","0.00"
"08:54:57","71.9","64.7","78.2","29.92","276","0.6","3.5","0.01","0.00"
"08:59:58","72.2","64.8","77.7","29.92","253","1.6","4","0.01","0.00"
"09:04:58","72.5","64.4","75.7","29.92","287","1.9","5","0.01","0.00"
"09:09:55","72.8","64","73.9","29.92","277","2","7","0.01","0.00"
"09:14:56","73.2","63.9","72.7","29.92","320","2.3","11","0.01","0.00"
"09:19:57","73.6","63.9","71.9","29.92","325","2.8","11.5","0.01","0.00"
"09:24:58","73.9","64.4","72.4","29.92","303","2.3","5","0.01","0.00"
"09:29:59","74.1","63.8","70.3","29.93","321","3","6","0.01","0.00"
"09:34:56","74.3","63.4","69","29.93","328","4.1","10.4","0.01","0.00"
"09:39:58","74.4","63.3","68.5","29.93","321","2.8","7","0.01","0.00"
"09:44:59","74.5","63.5","68.5","29.94","323","3.2","7","0.01","0.00"
"09:49:56","74.7","63.4","68.1","29.94","312","2.9","6","0.01","0.00"
"09:54:57","74.9","63.4","67.5","29.94","335","2.7","7","0.01","0.00"
"09:59:58","75.1","63","66.1","29.94","321","2.8","6.9","0.01","0.00"
"10:04:59","75.3","63.5","66.6","29.94","282","1.9","5.8","0.01","0.00"
"10:09:56","75.5","63.6","66.4","29.94","332","2.9","11.5","0.01","0.00"
"10:14:57","75.7","63.4","65.8","29.95","333","2.8","10.4","0.01","0.00"
"10:19:59","75.9","64.1","66.9","29.95","308","2.1","5.8","0.01","0.00"
"10:24:56","76.2","64.1","66.2","29.95","289","2.3","6","0.01","0.00"
"10:29:59","76.4","63.2","63.9","29.95","349","2.8","6","0.01","0.00"
"10:34:56","76.7","64.1","65.2","29.94","269","2","7","0.01","0.00"
"10:39:58","77","64.6","65.8","29.94","314","1.6","5.8","0.01","0.00"
"10:44:59","77.3","63.9","63.5","29.95","321","2.5","7","0.01","0.00"
"10:49:56","77.5","62.3","59.7","29.95","320","3.4","8.1","0.01","0.00"
"10:54:57","77.6","63.7","62.3","29.95","333","2.1","5.8","0.01","0.00"
"10:59:58","77.8","63","60.4","29.95","337","2.4","6","0.01","0.00"
"11:04:59","78","63.2","60.5","29.94","314","2","5.8","0.01","0.00"
"11:09:56","78.1","62.8","59.4","29.94","320","2.8","7","0.01","0.00"
"11:14:58","78.3","62.8","59.2","29.94","27","1.8","6.9","0.01","0.00"
"11:19:59","78.4","61.9","57","29.94","321","3.3","6","0.01","0.00"
"11:24:57","78.6","62.5","57.8","29.94","305","2.1","5","0.01","0.00"
"11:29:56","78.8","62.5","57.5","29.94","302","1.9","6","0.01","0.00"
"11:34:57","79","61.7","55.6","29.94","321","2.7","6","0.01","0.00"
"11:39:57","79.2","61.6","55","29.94","305","1.8","5","0.01","0.00"
"11:44:57","79.3","61.5","54.7","29.94","321","2.9","7","0.01","0.00"
"11:49:58","79.3","62.1","55.7","29.94","258","2.3","5","0.01","0.00"
"11:54:59","79.6","61.3","53.8","29.94","247","1.8","4.6","0.01","0.00"
"11:59:59","79.9","61.9","54.2","29.94","279","1.9","6","0.01","0.00"
"12:04:56","80.2","61.1","52.4","29.93","334","2.8","6","0.01","0.00"
"12:09:57","80.4","60.7","51.3","29.93","320","3.5","10.4","0.01","0.00"
"12:14:56","80.5","60.7","51.1","29.93","335","2.3","5","0.01","0.00"
"12:19:56","80.7","61.3","51.8","29.93","312","3","7","0.01","0.00"
"12:24:56","80.3","61.5","52.7","29.93","245","2.1","5","0.01","0.00"
"12:29:59","79.9","60.9","52.5","29.93","242","1.8","6","0.01","0.00"
"12:34:59","79.9","59.8","50.5","29.92","318","2.3","9","0.01","0.00"
"12:39:59","80.4","61.2","52","29.92","330","3.3","8.1","0.01","0.00"
"12:44:59","80.8","61.5","52.1","29.92","324","2.9","8.1","0.01","0.00"
"12:49:59","81","60.6","50","29.92","311","4.5","13","0.01","0.00"
"12:54:56","81","60.6","50","29.92","320","2.7","6","0.01","0.00"
"12:59:56","81.4","61.5","50.9","29.92","334","3.9","9.2","0.01","0.00"
"13:04:57","81.9","62.6","52.1","29.92","313","2.6","9","0.01","0.00"
"13:09:59","82.3","61.6","49.7","29.92","321","3.8","11.5","0.01","0.00"
"13:14:55","82.3","60.9","48.4","29.92","316","3.9","9","0.01","0.00"
"13:19:59","82.2","61.7","50","29.92","299","4.1","9.2","0.01","0.00"
"13:24:58","82.4","62.1","50.5","29.92","289","3","6","0.01","0.00"
"13:29:59","82.6","61.5","48.9","29.92","244","3","5.8","0.01","0.00"
"13:34:58","82.7","63.1","51.7","29.91","274","2.7","7","0.01","0.00"
"13:39:58","83.1","62.5","50","29.91","239","3.6","10.4","0.01","0.00"
"13:44:58","83.1","60.9","47.3","29.91","282","4.1","10.4","0.01","0.00"
"13:49:58","83","61.1","47.7","29.91","304","2.6","9","0.01","0.00"
"13:54:57","83.3","61.6","48.2","29.91","249","2.8","6","0.01","0.00"
"13:59:57","83.3","61.2","47.3","29.91","229","3.1","7","0.01","0.00"
"14:04:56","83.4","61.9","48.4","29.91","270","4.3","10.4","0.01","0.00"
"14:09:58","83.6","61.6","47.7","29.91","254","4.5","10.4","0.01","0.00"
"14:14:57","83.7","61.4","47.2","29.91","236","4.6","12","0.01","0.00"
"14:19:59","83.9","61.1","46.5","29.91","238","3.8","10.4","0.01","0.00"
"14:24:59","84","61.2","46.4","29.91","255","3.3","7","0.01","0.00"
"14:29:59","84.1","62.1","47.7","29.91","260","3.8","10","0.01","0.00"
"14:34:59","83.9","60","44.6","29.91","302","3.9","9.2","0.01","0.00"
"14:39:59","83.8","60.6","45.6","29.91","317","4.4","14","0.01","0.00"
"14:44:59","83.8","60","44.7","29.91","334","4.3","13.8","0.01","0.00"
"14:49:58","84","60.3","45","29.90","319","3.5","12","0.01","0.00"
"14:54:59","84.1","61.5","46.9","29.90","256","3.7","9.2","0.01","0.00"
"14:59:58","84.5","61.5","46.2","29.90","234","3.4","10","0.01","0.00"
"15:04:58","84.8","61.2","45.3","29.89","255","3.4","8.1","0.01","0.00"
"15:09:56","84.6","60.7","44.6","29.89","323","2.4","9.2","0.01","0.00"
"15:14:58","84.4","61.8","46.9","29.89","272","2.4","6","0.01","0.00"
"15:19:58","84.1","60.6","45.2","29.89","298","4.1","9.2","0.01","0.00"
"15:24:59","84","61.1","46.2","29.89","235","2.7","7","0.01","0.00"
"15:29:56","84.4","61.4","46.2","29.89","282","2.4","6","0.01","0.00"
"15:34:58","84.8","61.8","46.2","29.88","233","3.9","9.2","0.01","0.00"
"15:39:58","85","61","44.5","29.88","266","2.9","6","0.01","0.00"
"15:44:58","84.8","60.9","44.7","29.88","288","3.3","5","0.01","0.00"
"15:49:58","84.6","60.9","45.1","29.88","309","4.7","15","0.01","0.00"
"15:54:59","84.3","60.5","44.8","29.88","274","2.8","6","0.01","0.00"
"15:59:57","84.2","60.4","44.7","29.88","267","3.2","7","0.01","0.00"
"16:04:56","84.3","61.2","45.9","29.88","263","3","6","0.01","0.00"
"16:09:58","84.3","61.4","46.1","29.88","250","2.8","9","0.01","0.00"
"16:14:58","84.3","61.3","46.1","29.88","262","3.2","7","0.01","0.00"
"16:19:58","84.4","61.1","45.6","29.88","261","2.4","5.8","0.01","0.00"
"16:24:58","84.6","60.6","44.6","29.88","305","2.4","9","0.01","0.00"
"16:29:55","84.6","61.2","45.6","29.88","309","2.9","9.2","0.01","0.00"
"16:34:56","84.5","62.4","47.6","29.87","285","1.9","6.9","0.01","0.00"
"16:39:56","84.8","61.8","46.1","29.87","240","2.6","6","0.01","0.00"
"16:44:57","85.2","62","45.9","29.87","222","2.3","4","0.01","0.00"
"16:49:58","85.5","62.2","45.7","29.87","234","2.6","7","0.01","0.00"
"16:54:58","85.3","60.2","42.9","29.87","222","4.4","9.2","0.01","0.00"
"16:59:59","85","61.4","45.1","29.87","238","2.6","6","0.01","0.00"
"17:04:57","85.2","60.9","44.1","29.87","275","2.5","7","0.01","0.00"
"17:09:59","85.5","61.4","44.5","29.87","272","2.1","4","0.01","0.00"
"17:14:57","85.8","61.2","43.8","29.87","258","2.4","9","0.01","0.00"
"17:19:57","85.2","60.2","43","29.87","259","2.5","6","0.01","0.00"
"17:24:58","84.5","60.7","44.8","29.87","266","2.2","5.8","0.01","0.00"
"17:29:59","84.6","60.6","44.6","29.87","240","1.6","5","0.01","0.00"
"17:34:56","84.4","61.2","45.8","29.87","262","1.8","4","0.01","0.00"
"17:39:56","83.6","60.6","45.8","29.87","245","1.7","5","0.01","0.00"
"17:44:57","82.8","60.7","47.3","29.87","294","1","3.5","0.01","0.00"
"17:49:57","82.2","61.1","49.1","29.87","273","0.9","3.5","0.01","0.00"
"17:54:56","81.8","62.2","51.6","29.87","270","0.3","2.3","0.01","0.00"
"17:59:58","81.8","63.5","54.1","29.88","270","0.3","2.3","0.01","0.00"
"18:04:58","82.1","62.9","52.4","29.88","269","0.5","2.3","0.01","0.00"
"18:09:56","82.4","61.6","49.6","29.88","259","0.3","2.3","0.01","0.00"
"18:14:57","82.5","61.2","48.6","29.88","258","1.1","3.5","0.01","0.00"
"18:19:58","82.3","61.1","48.7","29.88","279","1","4","0.01","0.00"
"18:24:56","82.1","61.5","49.9","29.88","272","1.5","3.5","0.01","0.00"
"18:29:57","81.6","61.4","50.3","29.88","246","1.2","3.5","0.01","0.00"
"18:34:59","81.2","61.5","51.3","29.88","233","0.9","3.5","0.01","0.00"
"18:39:56","80.8","61.6","52.1","29.88","239","1.2","3.5","0.01","0.00"
"18:44:56","80.5","63.8","56.7","29.88","244","0.5","2.3","0.01","0.00"
"18:49:58","80.2","65.1","60.2","29.88","243","0.8","2.3","0.01","0.00"
"18:54:57","79.6","64.6","60.2","29.88","243","0.3","2.3","0.01","0.00"
"18:59:58","78.9","63.9","60.3","29.88","243","0","0","0.01","0.00"
"19:04:59","78.3","64.5","62.6","29.88","243","0","0","0.01","0.00"
"19:09:58","77.7","65.2","65.4","29.88","243","0","0","0.01","0.00"
"19:14:59","76.9","65","66.8","29.89","243","0","0","0.01","0.00"
"19:19:57","76.2","65.2","68.7","29.89","243","0","0","0.01","0.00"
"19:24:56","75.6","65","69.8","29.89","243","0","0","0.01","0.00"
"19:29:55","74.9","64.6","70.4","29.89","243","0","0","0.01","0.00"
"19:34:59","74.2","64","70.6","29.89","243","0","0","0.01","0.00"
"19:39:56","73.3","63.6","71.5","29.89","243","0","0","0.01","0.00"
"19:44:57","72.7","64","74.2","29.89","243","0","0","0.01","0.00"
"19:49:56","72.2","64.3","76.1","29.89","243","0","0","0.01","0.00"
"19:54:56","71.8","64.2","77","29.89","243","0","0","0.01","0.00"
"19:59:56","71.3","64.1","78","29.90","243","0","0","0.01","0.00"
"20:04:58","70.8","63.9","78.8","29.90","243","0","0","0.01","0.00"
"20:09:57","70.5","63.9","79.9","29.90","243","0","0","0.01","0.00"
"20:14:57","70.3","64.2","81.1","29.90","243","0","0","0.01","0.00"
"20:19:59","70.1","64.5","82.4","29.90","243","0","0","0.01","0.00"
"20:24:59","69.8","64.6","83.4","29.90","243","0","0","0.01","0.00"
"20:29:58","69.6","64.5","84","29.91","243","0","0","0.01","0.00"
"20:34:57","69.3","64.4","84.3","29.91","243","0","0","0.01","0.00"
"20:39:58","69.1","64.4","85","29.91","243","0","0","0.01","0.00"
"20:44:58","68.8","64.3","85.7","29.92","243","0","0","0.01","0.00"
"20:49:57","68.6","64.1","85.9","29.92","243","0","0","0.01","0.00"
"20:54:57","68.2","63.4","84.6","29.92","243","0","0","0.01","0.00"
"20:59:58","67.8","63.3","85.5","29.92","243","0","0","0.01","0.00"
"21:04:56","67.6","63.3","86.2","29.92","243","0","0","0.01","0.00"
"21:09:56","67.4","63.4","87","29.92","243","0","0","0.01","0.00"
"21:14:57","67.2","63.2","87.1","29.92","243","0","0","0.01","0.00"
"21:19:57","66.9","63.4","88.6","29.92","243","0","0","0.01","0.00"
"21:24:59","66.7","63.5","89.3","29.92","243","0","0","0.01","0.00"
"21:29:58","66.6","63.6","90","29.93","243","0","0","0.01","0.00"
"21:34:58","66.5","63.5","90","29.93","243","0","0","0.01","0.00"
"21:39:58","66.4","63.4","90","29.93","243","0","0","0.01","0.00"
"21:44:58","66.1","63.3","90.5","29.94","243","0","0","0.01","0.00"
"21:49:57","66","63.3","91","29.94","243","0","0","0.01","0.00"
"21:54:56","65.9","63.1","90.9","29.94","243","0","0","0.01","0.00"
"21:59:59","65.5","62.5","90","29.94","243","0","0","0.01","0.00"
"22:04:58","65.1","62.1","90","29.94","243","0","0","0.01","0.00"
"22:09:57","64.8","62","90.5","29.94","243","0","0","0.01","0.00"
"22:14:56","64.7","62.2","91.9","29.94","243","0","0","0.01","0.00"
"22:19:58","64.7","62.3","92","29.94","243","0","0","0.01","0.00"
"22:24:57","64.6","62.2","92","29.94","243","0","0","0.01","0.00"
"22:29:57","64.4","62","92","29.95","243","0","0","0.01","0.00"
"22:34:56","64.2","61.8","92","29.95","243","0","0","0.01","0.00"
"22:39:57","64.1","61.7","92","29.95","243","0","0","0.01","0.00"
"22:44:57","63.9","61.5","92","29.95","243","0","0","0.01","0.00"
"22:49:58","63.8","61.5","92.3","29.95","243","0","0","0.01","0.00"
"22:54:58","63.7","61.4","92.2","29.95","243","0","0","0.01","0.00"
"22:59:58","63.6","61.4","92.5","29.95","243","0","0","0.01","0.00"
"23:04:56","63.5","61.4","93","29.95","243","0","0","0.01","0.00"
"23:09:59","63.4","61.3","93","29.95","243","0","0","0.01","0.00"
"23:14:58","63.4","61.3","93","29.96","243","0","0","0.01","0.00"
"23:19:56","63.3","61.2","93","29.96","243","0","0","0.01","0.00"
"23:24:59","63.2","61.1","93","29.96","243","0","0","0.01","0.00"
"23:29:58","63.1","61","93","29.96","243","0","0","0.01","0.00"
"23:34:58","62.9","60.8","93","29.96","243","0","0","0.01","0.00"
"23:39:58","62.8","60.8","93.3","29.96","243","0","0","0.01","0.00"
"23:44:57","62.9","61.1","94","29.96","243","0","0","0.01","0.00"
"23:49:55","62.9","61.1","94","29.96","243","0","0","0.01","0.00"
"23:54:59","62.7","60.7","93.1","29.96","243","0","0","0.01","0.00"
"23:59:57","62.6","60.8","94","29.96","243","0","0","0.01","0.00"
